[[{"header":{"parameterUnit":"m.s-1","parameterCategory":2,"la1":30.2991,"la2":30.254,"lo1":-89.0895,"lo2":-89.0444,"dy":0.0017,"dx":0.0017,"nx":28,"ny":28,"refTime":"2025-09-06T21:00:00:Z","depth":"0","parameterNumber":2,"parameterNumberName":"U-component_of_CURRENTS"},"data":[0,0,0,0,0,0,0,0,0,0,0,0,0,0,0,0,0,0,0,0,0,0,0,0,0,0,0,0,0,0,0,0,0,0,0,0,0,0,0,0,0,0,0,0,0,0,0,0,0,0,0,0,0,0,0,0,0,0,0.2092,0.2092,0,0.2104,0.2104,0.2104,0.2102,0.2102,0.2102,0.2102,0.2093,0.2092,0.2092,0,0,0,0,0,0,0,0,0,0,0,0,0,0.2065,0.2065,0.2092,0.2092,0.2092,0.2104,0.2104,0.2104,0.2102,0.2102,0.2102,0.2102,0.2093,0.2092,0.2092,0,0,0,0,0,0,0,0,0,0,0,0,0,0.2075,0.2065,0.2092,0.2094,0.2095,0.2104,0.2104,0.2104,0.2102,0.2102,0.2102,0.2102,0.2093,0.2092,0.2092,0.2091,0,0,0.2091,0.2091,0,0,0,0,0,0,0,0,0.2074,0.2076,0.2094,0.2094,0.2095,0.2104,0.2091,0.2099,0.2102,0.2097,0.2102,0.2102,0.2095,0.2095,0.2095,0.209,0.209,0.2091,0.2091,0.2091,0.2091,0,0,0,0,0,0,0,0.2074,0.2075,0.2095,0.2094,0.2095,0.2095,0.2096,0.2093,0.2095,0.2098,0.2098,0.2103,0.2095,0.2095,0.2095,0.209,0.2091,0.2091,0.209,0.209,0.2114,0.2114,0,0,0,0,0,0,0.2076,0.2074,0.2094,0.2095,0.2086,0.2095,0.2097,0.2099,0.2095,0.2095,0.2103,0.2103,0.2096,0.2095,0.2094,0.2114,0.2091,0.209,0.209,0.2113,0.2114,0.2115,0,0,0,0,0,0,0.2076,0.2078,0.2094,0.2087,0.2089,0.2096,0.2099,0.2099,0.2102,0.21,0.2099,0.2105,0.2096,0.2095,0.2096,0.2112,0.209,0.209,0.2112,0.2113,0.2114,0.2139,0,0,0,0,0,0,0.2075,0.2077,0.2078,0.2087,0.209,0.2103,0.2099,0.21,0.2105,0.2105,0.2101,0.21,0.2096,0.2097,0.2096,0.2111,0.209,0.2111,0.2112,0.2114,0.2137,0.214,0.2144,0,0,0,0,0,0.2074,0.2081,0.2078,0.2081,0.2091,0.2103,0.2104,0.2108,0.2106,0.2108,0.2106,0.21,0.2106,0.2097,0.2096,0.2112,0.211,0.2112,0.2114,0.2135,0.214,0.2144,0,0,0,0,0,0,0.2072,0.2081,0.2079,0.2088,0.2095,0.2104,0.2109,0.2109,0.211,0.2111,0.2104,0.2103,0.2114,0.2108,0.2098,0.2125,0.211,0.2112,0.2127,0.2131,0.2135,0.2142,0.2089,0,0,0,0,0,0.2071,0.2077,0.2085,0.2093,0.2097,0.2102,0.2106,0.211,0.2114,0.2114,0.211,0.2112,0.2121,0.2121,0.2125,0.2132,0.2142,0.2145,0.2148,0.2151,0.2157,0.2189,0.2196,0.2121,0.2121,0.2121,0,0,0.2072,0.2079,0.2082,0.2093,0.2098,0.211,0.2104,0.2117,0.2129,0.2113,0.2123,0.2123,0.2126,0.214,0.2145,0.2135,0.2179,0.2153,0.2156,0.216,0.2192,0.2199,0.2205,0.2122,0.2122,0.2122,0,0,0.2082,0.2084,0.2092,0.2101,0.2115,0.2119,0.2123,0.2131,0.2136,0.2143,0.2144,0.2154,0.2153,0.2167,0.2172,0.2198,0.2198,0.2197,0.2217,0.2248,0.2254,0.226,0.2284,0.2292,0.2197,0.2197,0.2197,0,0.2082,0.2093,0.2096,0.2112,0.2121,0.2124,0.2137,0.2146,0.2153,0.216,0.215,0.2171,0.2172,0.2201,0.2211,0.2207,0.2218,0.2199,0.2252,0.2258,0.2264,0.2287,0.2295,0.2198,0.2198,0.2198,0.2198,0,0.2097,0.2109,0.2118,0.2134,0.2145,0.2158,0.2172,0.2181,0.2182,0.2189,0.2211,0.2215,0.2228,0.2233,0.2227,0.2269,0.2263,0.2255,0.2241,0.2273,0.2295,0.2303,0.22,0.2199,0.2199,0.2199,0,0,0.2081,0.212,0.2121,0.2132,0.2157,0.2165,0.2192,0.221,0.2231,0.2234,0.226,0.2275,0.2275,0.2283,0.2283,0.2306,0.2354,0.2294,0.2295,0.2317,0.2418,0.239,0.2396,0.2352,0.2354,0.2355,0.2419,0,0.2086,0.2116,0.2136,0.216,0.2171,0.2191,0.2214,0.2235,0.2254,0.228,0.2292,0.2318,0.2296,0.231,0.2329,0.2354,0.2376,0.2338,0.2385,0.2387,0.2357,0.2405,0.2315,0.2362,0.2426,0.2428,0.2429,0,0.2082,0.2104,0.2129,0.2168,0.2175,0.2192,0.2228,0.2253,0.2297,0.2317,0.2344,0.2357,0.2397,0.2373,0.2428,0.2402,0.2413,0.2425,0.2427,0.2398,0.2374,0.2341,0.2374,0.2323,0.2441,0.244,0.2439,0,0.2048,0.2093,0.2111,0.2125,0.2171,0.2186,0.2209,0.2255,0.2289,0.2346,0.2381,0.2416,0.245,0.2468,0.2488,0.2465,0.2546,0.2519,0.2503,0.2501,0.2433,0.2422,0.2422,0.256,0.256,0.256,0.2559,0,0.2036,0.2047,0.2097,0.2105,0.213,0.2167,0.2203,0.2241,0.2307,0.2344,0.2395,0.2437,0.2477,0.2521,0.252,0.2543,0.2575,0.2521,0.2522,0.2439,0.2428,0.2387,0.2361,0.2562,0.2562,0.2561,0.2561,0,0.1989,0.2025,0.2046,0.2097,0.2114,0.2127,0.2199,0.2228,0.2302,0.2358,0.2381,0.2476,0.253,0.2565,0.2614,0.2593,0.2542,0.2609,0.2506,0.2493,0.2408,0.2387,0.2306,0.2232,0.26,0.26,0.2599,0,0.196,0.1969,0.2027,0.2039,0.2061,0.2096,0.2121,0.2208,0.2248,0.2365,0.2388,0.2484,0.2526,0.2607,0.2603,0.2618,0.2534,0.2534,0.247,0.2406,0.2384,0.2286,0.2222,0.2392,0.239,0.2389,0.2388,0,0.1901,0.1929,0.1953,0.1986,0.2012,0.2044,0.209,0.2133,0.2223,0.2278,0.2354,0.2407,0.251,0.25,0.2543,0.2532,0.2411,0.2502,0.2464,0.225,0.2115,0.2043,0.2349,0.2374,0.2375,0.2376,0.2377,0.2378,0.1843,0.1855,0.1892,0.1914,0.1946,0.1967,0.1961,0.2025,0.2073,0.2123,0.2242,0.2275,0.2366,0.2421,0.2407,0.2346,0.2325,0.2267,0.2258,0.2173,0.206,0.2336,0.2342,0.2343,0.2344,0.2345,0.2346,0,0.1752,0.1786,0.1813,0.1836,0.1828,0.1873,0.1911,0.1887,0.189,0.1986,0.2028,0.2097,0.2126,0.2189,0.2198,0.2117,0.2011,0.2058,0.1902,0.186,0.214,0.209,0.2005,0.2005,0.2005,0.2005,0.2005,0.2005,0.1708,0.1703,0.1728,0.1695,0.1706,0.1658,0.1649,0.1643,0.1687,0.1707,0.1739,0.1814,0.1991,0.2072,0.2022,0.1963,0.1799,0.172,0.1714,0.1929,0.1947,0.1965,0.1912,0.1792,0.1791,0.1344,0.1341,0.1339]},{"header":{"parameterUnit":"m.s-1","parameterCategory":2,"la1":30.2991,"la2":30.254,"lo1":-89.0895,"lo2":-89.0444,"dy":0.0017,"dx":0.0017,"nx":28,"ny":28,"refTime":"2025-09-06T21:00:00:Z","depth":"0","parameterNumber":3,"parameterNumberName":"V-component_of_CURRENTS"},"data":[0,0,0,0,0,0,0,0,0,0,0,0,0,0,0,0,0,0,0,0,0,0,0,0,0,0,0,0,0,0,0,0,0,0,0,0,0,0,0,0,0,0,0,0,0,0,0,0,0,0,0,0,0,0,0,0,0,0,-0.0166,-0.0166,0,-0.0206,-0.0206,-0.0207,-0.0248,-0.0248,-0.0249,-0.0249,-0.0313,-0.0314,-0.0315,0,0,0,0,0,0,0,0,0,0,0,0,0,-0.0142,-0.0142,-0.0166,-0.0166,-0.0166,-0.0206,-0.0206,-0.0207,-0.0248,-0.0248,-0.0249,-0.025,-0.0312,-0.0314,-0.0315,0,0,0,0,0,0,0,0,0,0,0,0,0,-0.0164,-0.0142,-0.0165,-0.0191,-0.0194,-0.0205,-0.0206,-0.0207,-0.0247,-0.0248,-0.0249,-0.025,-0.0312,-0.0314,-0.0315,-0.0311,0,0,-0.0321,-0.0322,0,0,0,0,0,0,0,0,-0.0163,-0.0165,-0.0187,-0.019,-0.0193,-0.0222,-0.0221,-0.0243,-0.0247,-0.0228,-0.0249,-0.025,-0.0284,-0.0288,-0.0294,-0.0313,-0.0316,-0.0321,-0.0322,-0.0323,-0.0323,0,0,0,0,0,0,0,-0.0161,-0.0164,-0.0182,-0.0187,-0.0191,-0.0207,-0.0211,-0.0225,-0.0251,-0.0229,-0.0232,-0.0236,-0.0286,-0.0292,-0.0296,-0.0317,-0.0321,-0.0323,-0.0324,-0.0324,-0.0347,-0.0346,0,0,0,0,0,0,-0.0154,-0.0162,-0.0181,-0.0183,-0.0179,-0.0207,-0.0211,-0.0212,-0.0251,-0.0257,-0.0235,-0.0238,-0.0289,-0.0294,-0.0298,-0.0291,-0.0323,-0.0324,-0.0326,-0.0347,-0.0347,-0.0346,0,0,0,0,0,0,-0.0153,-0.0155,-0.0179,-0.0173,-0.0178,-0.0206,-0.0207,-0.0213,-0.0218,-0.0255,-0.0262,-0.0235,-0.0289,-0.0296,-0.0304,-0.0294,-0.0325,-0.0327,-0.0348,-0.0347,-0.0346,-0.0279,0,0,0,0,0,0,-0.0152,-0.0154,-0.0151,-0.0173,-0.0178,-0.0177,-0.0206,-0.0213,-0.0219,-0.0223,-0.0257,-0.0264,-0.029,-0.0301,-0.0306,-0.0297,-0.0328,-0.0348,-0.0347,-0.0347,-0.0281,-0.0276,-0.0271,0,0,0,0,0,-0.0151,-0.0141,-0.0151,-0.0153,-0.0172,-0.0176,-0.018,-0.0204,-0.0218,-0.0213,-0.0237,-0.0263,-0.03,-0.0302,-0.0308,-0.0299,-0.0349,-0.0348,-0.0347,-0.0284,-0.0277,-0.0271,0,0,0,0,0,0,-0.013,-0.0145,-0.0156,-0.0151,-0.016,-0.0183,-0.0182,-0.0196,-0.0211,-0.0218,-0.0252,-0.026,-0.0267,-0.029,-0.0292,-0.0304,-0.033,-0.033,-0.0281,-0.0274,-0.0269,-0.0257,-0.033,0,0,0,0,0,-0.0122,-0.0118,-0.0135,-0.0131,-0.0134,-0.0156,-0.0161,-0.0176,-0.0192,-0.02,-0.0223,-0.0249,-0.0266,-0.0275,-0.0296,-0.0296,-0.032,-0.0296,-0.0291,-0.0286,-0.0281,-0.0302,-0.0297,-0.0342,-0.0342,-0.0343,0,0,-0.0114,-0.012,-0.0119,-0.0125,-0.0137,-0.0132,-0.0161,-0.0164,-0.016,-0.0204,-0.0204,-0.023,-0.0262,-0.0267,-0.0272,-0.0284,-0.0285,-0.0284,-0.028,-0.0278,-0.03,-0.0296,-0.0292,-0.0342,-0.0342,-0.0342,0,0,-0.0091,-0.0099,-0.0088,-0.0091,-0.0101,-0.0112,-0.0108,-0.0127,-0.0135,-0.0137,-0.017,-0.0184,-0.0211,-0.0228,-0.0242,-0.0218,-0.0257,-0.0229,-0.019,-0.021,-0.0206,-0.0203,-0.0225,-0.0225,-0.0224,-0.0224,-0.0224,0,-0.0082,-0.007,-0.0085,-0.0074,-0.0071,-0.0098,-0.0084,-0.0092,-0.011,-0.0111,-0.0131,-0.0165,-0.0192,-0.0195,-0.0189,-0.0205,-0.0225,-0.0209,-0.0202,-0.0199,-0.0198,-0.0221,-0.0221,-0.0221,-0.0221,-0.0221,-0.0222,0,-0.0051,-0.0042,-0.0034,-0.0029,-0.0026,-0.0018,-0.003,-0.0029,-0.0045,-0.0057,-0.0064,-0.01,-0.0121,-0.0131,-0.0153,-0.0151,-0.0172,-0.0193,-0.0215,-0.0189,-0.0215,-0.0217,-0.0216,-0.0217,-0.0218,-0.0219,0,0,-0.0027,-0.0016,-0.0012,0.0001,-0.0001,0.0007,0.0017,0.0021,0.0032,0.0007,0.0016,-0.0016,-0.004,-0.0056,-0.0087,-0.0102,-0.0107,-0.0136,-0.0139,-0.0153,-0.0152,-0.0156,-0.0158,-0.0126,-0.0126,-0.0126,-0.0175,0,0.0001,0.0034,0.0031,0.0065,0.0081,0.0067,0.0081,0.008,0.0073,0.0076,0.0039,0.0031,-0.001,-0.0019,-0.0039,-0.0088,-0.0109,-0.0092,-0.0181,-0.0184,-0.0185,-0.0159,-0.0142,-0.0183,-0.0177,-0.0177,-0.0177,0,0.0035,0.0053,0.0089,0.0115,0.012,0.0134,0.0155,0.0165,0.0159,0.0153,0.0137,0.0103,0.008,0.0037,-0.0031,-0.0018,-0.0079,-0.0122,-0.0126,-0.0153,-0.019,-0.021,-0.0187,-0.0281,-0.0181,-0.018,-0.018,0,0.0067,0.0097,0.0129,0.0138,0.0158,0.0171,0.0181,0.0187,0.021,0.0201,0.0212,0.0168,0.0154,0.0077,-0.0011,-0.0023,-0.0089,-0.0121,-0.0184,-0.0186,-0.0201,-0.0203,-0.0273,-0.0176,-0.0176,-0.0176,-0.0176,0,0.0103,0.0132,0.0146,0.0165,0.0207,0.0205,0.025,0.0252,0.027,0.0308,0.0253,0.0274,0.0164,0.0113,0.0015,-0.0078,-0.0072,-0.017,-0.0194,-0.0176,-0.0176,-0.0284,-0.0347,-0.0178,-0.0177,-0.0177,-0.0177,0,0.0138,0.0146,0.0187,0.0212,0.0224,0.0255,0.0301,0.0336,0.0339,0.0387,0.0387,0.0359,0.0296,0.018,0.0062,-0.0032,-0.0189,-0.0175,-0.0146,-0.0165,-0.0311,-0.0371,-0.0478,-0.0524,-0.0251,-0.0252,-0.0252,0,0.0164,0.0184,0.0225,0.0255,0.0268,0.0313,0.0349,0.037,0.0419,0.0448,0.0482,0.0435,0.0429,0.0258,0.0082,-0.0087,-0.0194,-0.0195,-0.0218,-0.0308,-0.0393,-0.0437,-0.047,-0.0216,-0.0216,-0.0216,-0.0216,0,0.021,0.0216,0.0249,0.0308,0.035,0.0408,0.0463,0.0516,0.0548,0.0592,0.0649,0.0645,0.0484,0.0342,0.0103,-0.0024,-0.0258,-0.0199,-0.0301,-0.0373,-0.0417,-0.0475,-0.0201,-0.0215,-0.0215,-0.0215,-0.0215,-0.0215,0.0247,0.0275,0.0311,0.0372,0.0424,0.0501,0.056,0.063,0.0718,0.0793,0.0782,0.0799,0.057,0.0262,0.0077,-0.0247,-0.0264,-0.0346,-0.0413,-0.0449,-0.0488,-0.0208,-0.0243,-0.0243,-0.0243,-0.0243,-0.0244,0,0.0303,0.0326,0.0377,0.0449,0.0516,0.0533,0.0639,0.0706,0.0819,0.0885,0.0936,0.0845,0.0564,0.0255,-0.0176,-0.0408,-0.0502,-0.0544,-0.0606,-0.0632,-0.0388,-0.0379,-0.0434,-0.0434,-0.0433,-0.0433,-0.0433,-0.0433,0.0332,0.0386,0.0406,0.0518,0.057,0.0667,0.0732,0.0829,0.0904,0.0996,0.1016,0.1007,0.0784,0.0029,-0.0486,-0.0611,-0.0784,-0.0825,-0.0915,-0.0753,-0.0739,-0.0726,-0.0732,-0.086,-0.0861,-0.1116,-0.1118,-0.112]}],[{"header":{"parameterUnit":"m.s-1","parameterCategory":2,"la1":30.2991,"la2":30.254,"lo1":-89.0895,"lo2":-89.0444,"dy":0.0017,"dx":0.0017,"nx":28,"ny":28,"refTime":"2025-09-06T21:00:00:Z","depth":"2","parameterNumber":2,"parameterNumberName":"U-component_of_CURRENTS"},"data":[0,0,0,0,0,0,0,0,0,0,0,0,0,0,0,0,0,0,0,0,0,0,0,0,0,0,0,0,0,0,0,0,0,0,0,0,0,0,0,0,0,0,0,0,0,0,0,0,0,0,0,0,0,0,0,0,0,0,0.1878,0.1878,0,0.1895,0.1895,0.1895,0.1918,0.1918,0.1918,0.1918,0.1926,0.1926,0.1926,0,0,0,0,0,0,0,0,0,0,0,0,0,0.1867,0.1867,0.1878,0.1878,0.1878,0.1895,0.1895,0.1895,0.1918,0.1918,0.1918,0.1918,0.1926,0.1926,0.1926,0,0,0,0,0,0,0,0,0,0,0,0,0,0.1878,0.1867,0.1878,0.189,0.1891,0.1894,0.1895,0.1896,0.1918,0.1918,0.1918,0.1919,0.1926,0.1926,0.1926,0.1921,0,0,0.1926,0.1926,0,0,0,0,0,0,0,0,0.1878,0.1879,0.1888,0.1889,0.189,0.1903,0.1894,0.1903,0.1918,0.191,0.1918,0.1919,0.1916,0.1917,0.1922,0.1921,0.1922,0.1926,0.1926,0.1926,0.1926,0,0,0,0,0,0,0,0.1877,0.1878,0.1887,0.1888,0.1889,0.1894,0.1896,0.1896,0.1913,0.1911,0.1912,0.191,0.1917,0.1922,0.1923,0.1922,0.1926,0.1926,0.1926,0.1926,0.1964,0.1964,0,0,0,0,0,0,0.187,0.1878,0.1886,0.1887,0.1882,0.1894,0.1897,0.19,0.1913,0.1914,0.191,0.1911,0.1922,0.1923,0.1923,0.1952,0.1926,0.1926,0.1926,0.1963,0.1964,0.1965,0,0,0,0,0,0,0.187,0.1871,0.1885,0.1881,0.1883,0.1894,0.1898,0.19,0.1915,0.1912,0.1914,0.1923,0.1922,0.1923,0.1935,0.1951,0.1926,0.1926,0.1961,0.1963,0.1964,0.1988,0,0,0,0,0,0,0.187,0.1871,0.1876,0.188,0.1883,0.1897,0.1897,0.19,0.1912,0.1914,0.1923,0.1924,0.1923,0.1935,0.1935,0.1951,0.1926,0.196,0.1962,0.1964,0.1986,0.199,0.1994,0,0,0,0,0,0.1869,0.1875,0.1876,0.1877,0.1888,0.1897,0.1899,0.1909,0.1912,0.1923,0.193,0.1924,0.1947,0.1935,0.1935,0.1952,0.1959,0.1962,0.1964,0.1985,0.199,0.1994,0,0,0,0,0,0,0.1874,0.1878,0.1879,0.1886,0.1894,0.19,0.191,0.1914,0.1928,0.1933,0.1931,0.1932,0.1953,0.1948,0.1936,0.197,0.1954,0.1956,0.197,0.1975,0.1979,0.1983,0.1926,0,0,0,0,0,0.1875,0.1884,0.1886,0.1894,0.1898,0.1906,0.1912,0.1918,0.1926,0.1934,0.1937,0.1946,0.196,0.1964,0.1973,0.1984,0.1991,0.1997,0.2001,0.2004,0.2009,0.2038,0.2045,0.1972,0.1972,0.1972,0,0,0.1879,0.1882,0.1888,0.1896,0.1904,0.1915,0.1912,0.1925,0.1938,0.1931,0.1952,0.1959,0.1967,0.1987,0.1995,0.1984,0.2029,0.2007,0.2009,0.2013,0.2041,0.2048,0.2054,0.1973,0.1973,0.1973,0,0,0.1891,0.1896,0.1907,0.1915,0.1925,0.1928,0.1933,0.1942,0.1953,0.1968,0.1974,0.1992,0.2001,0.2015,0.2023,0.2052,0.2051,0.2056,0.2074,0.2102,0.2108,0.2114,0.213,0.2137,0.2054,0.2054,0.2054,0,0.1898,0.1905,0.1912,0.1924,0.1929,0.1935,0.1946,0.196,0.1972,0.1983,0.1979,0.2014,0.2018,0.205,0.2063,0.2061,0.2072,0.2054,0.2107,0.2112,0.2117,0.2133,0.214,0.2055,0.2055,0.2055,0.2055,0,0.1909,0.1922,0.1931,0.1946,0.1957,0.1967,0.198,0.1996,0.2003,0.2012,0.2044,0.2054,0.2075,0.2081,0.2079,0.2121,0.2116,0.211,0.2093,0.2126,0.214,0.2147,0.2057,0.2057,0.2056,0.2056,0,0,0.1903,0.1932,0.1937,0.1946,0.1966,0.1973,0.2002,0.2022,0.2048,0.2059,0.2089,0.2113,0.2119,0.2129,0.2133,0.2154,0.2198,0.2148,0.2149,0.2161,0.2256,0.2219,0.2223,0.2202,0.2204,0.2205,0.225,0,0.1908,0.1934,0.1946,0.1969,0.1979,0.1997,0.2023,0.2047,0.207,0.2103,0.2119,0.2152,0.2137,0.2156,0.2174,0.2198,0.2218,0.2186,0.2225,0.2227,0.2187,0.223,0.2056,0.2079,0.2257,0.2258,0.2259,0,0.1903,0.1923,0.1946,0.1977,0.1984,0.2,0.2041,0.2067,0.2117,0.2143,0.2176,0.2192,0.223,0.2213,0.2263,0.2243,0.2254,0.2264,0.2266,0.2227,0.2202,0.2076,0.2085,0.227,0.227,0.2269,0.2268,0,0.1878,0.1917,0.1933,0.1943,0.1983,0.1999,0.2023,0.2075,0.2111,0.2174,0.2211,0.2247,0.2282,0.2299,0.2316,0.2298,0.2366,0.2343,0.2317,0.2314,0.2171,0.2153,0.238,0.238,0.238,0.238,0.238,0,0.186,0.1874,0.1924,0.193,0.1958,0.199,0.203,0.2071,0.2139,0.2176,0.2229,0.2267,0.2308,0.2344,0.2342,0.2354,0.2389,0.2332,0.2329,0.2174,0.2157,0.2325,0.2318,0.2382,0.2381,0.2381,0.2381,0,0.182,0.1854,0.1872,0.1922,0.1942,0.196,0.2032,0.2064,0.2142,0.2197,0.2221,0.2305,0.2349,0.2379,0.242,0.2395,0.2406,0.24,0.2212,0.2187,0.2325,0.2319,0.2374,0.2373,0.2372,0.2372,0.2371,0,0.1793,0.1803,0.1861,0.1875,0.1894,0.1938,0.1968,0.2054,0.2089,0.2202,0.2216,0.2304,0.233,0.2391,0.2375,0.2378,0.2407,0.221,0.2143,0.2335,0.2328,0.2322,0.2317,0.1961,0.1957,0.1954,0.1951,0,0.1741,0.1768,0.179,0.1831,0.1858,0.1895,0.1942,0.1973,0.206,0.2111,0.2166,0.2207,0.2283,0.2211,0.2241,0.2213,0.2194,0.2148,0.2405,0.1994,0.1951,0.1942,0.1949,0.1924,0.1926,0.1929,0.193,0.1931,0.1695,0.1703,0.174,0.1767,0.1802,0.182,0.1816,0.187,0.1907,0.194,0.2039,0.2033,0.2074,0.2026,0.1972,0.1934,0.2082,0.1972,0.1979,0.199,0.1939,0.1897,0.185,0.1852,0.1854,0.1856,0.1858,0,0.1621,0.1645,0.1673,0.1692,0.1689,0.1742,0.1768,0.1741,0.1728,0.179,0.1818,0.169,0.1666,0.1699,0.161,0.1626,0.159,0.1547,0.1474,0.1505,0.1531,0.1453,0.1237,0.1235,0.1233,0.1231,0,0,0.1582,0.1576,0.1594,0.1563,0.1578,0.1541,0.153,0.1512,0.1526,0.1488,0.1467,0.159,0.1656,0.1415,0.1402,0.1297,0.1384,0.125,0.1754,0.17,0.1723,0.1794,0.1712,0,0,0,0,0]},{"header":{"parameterUnit":"m.s-1","parameterCategory":2,"la1":30.2991,"la2":30.254,"lo1":-89.0895,"lo2":-89.0444,"dy":0.0017,"dx":0.0017,"nx":28,"ny":28,"refTime":"2025-09-06T21:00:00:Z","depth":"2","parameterNumber":3,"parameterNumberName":"V-component_of_CURRENTS"},"data":[0,0,0,0,0,0,0,0,0,0,0,0,0,0,0,0,0,0,0,0,0,0,0,0,0,0,0,0,0,0,0,0,0,0,0,0,0,0,0,0,0,0,0,0,0,0,0,0,0,0,0,0,0,0,0,0,0,0,0.0066,0.0066,0,0.0027,0.0026,0.0025,-0.002,-0.002,-0.0021,-0.0021,-0.0083,-0.0084,-0.0085,0,0,0,0,0,0,0,0,0,0,0,0,0,0.0074,0.0074,0.0066,0.0066,0.0065,0.0027,0.0026,0.0025,-0.002,-0.002,-0.0021,-0.0021,-0.0082,-0.0084,-0.0085,0,0,0,0,0,0,0,0,0,0,0,0,0,0.0054,0.0074,0.0066,0.004,0.0038,0.0027,0.0026,0.0025,-0.002,-0.002,-0.0021,-0.0022,-0.0082,-0.0084,-0.0086,-0.0084,0,0,-0.0091,-0.0092,0,0,0,0,0,0,0,0,0.0055,0.0053,0.0044,0.0042,0.0039,0.001,0.0006,-0.0012,-0.002,-0.0001,-0.0021,-0.0022,-0.0052,-0.0056,-0.0065,-0.0087,-0.0089,-0.0091,-0.0092,-0.0093,-0.0094,0,0,0,0,0,0,0,0.0057,0.0055,0.0048,0.0044,0.0041,0.0021,0.0018,0.0002,-0.0024,-0.0002,-0.0005,-0.0005,-0.0054,-0.0063,-0.0067,-0.009,-0.0091,-0.0093,-0.0094,-0.0095,-0.013,-0.0129,0,0,0,0,0,0,0.0069,0.0056,0.0049,0.0047,0.0049,0.0022,0.0018,0.0018,-0.0024,-0.003,-0.0004,-0.0007,-0.006,-0.0065,-0.0069,-0.0071,-0.0093,-0.0095,-0.0096,-0.013,-0.0129,-0.0129,0,0,0,0,0,0,0.0069,0.0069,0.0051,0.0052,0.0049,0.0023,0.0023,0.0017,0.0004,-0.0025,-0.0032,-0.0012,-0.0061,-0.0067,-0.0083,-0.0074,-0.0096,-0.0097,-0.013,-0.013,-0.0129,-0.0074,0,0,0,0,0,0,0.007,0.0069,0.0071,0.0053,0.005,0.0047,0.0024,0.0017,0.0007,0.0003,-0.0033,-0.0039,-0.0062,-0.008,-0.0085,-0.0077,-0.0099,-0.013,-0.013,-0.0129,-0.0076,-0.0072,-0.0069,0,0,0,0,0,0.007,0.0079,0.0071,0.007,0.0054,0.0048,0.0044,0.0021,0.0007,0.0005,-0.0019,-0.0039,-0.0081,-0.0081,-0.0087,-0.0079,-0.013,-0.013,-0.0129,-0.0078,-0.0073,-0.0069,0,0,0,0,0,0,0.008,0.0075,0.0066,0.0071,0.0062,0.0041,0.0038,0.0024,0.0003,-0.0003,-0.0034,-0.0042,-0.0054,-0.0074,-0.0073,-0.009,-0.011,-0.011,-0.0069,-0.0064,-0.006,-0.0049,-0.01,0,0,0,0,0,0.0086,0.0091,0.008,0.0083,0.008,0.0059,0.0053,0.004,0.0022,0.0011,-0.0012,-0.0038,-0.0056,-0.0066,-0.0087,-0.0092,-0.0113,-0.0092,-0.0088,-0.0085,-0.008,-0.0102,-0.0099,-0.0128,-0.0128,-0.0128,0,0,0.009,0.0089,0.009,0.0086,0.0074,0.0079,0.0053,0.0048,0.005,0.0009,0.0001,-0.0025,-0.0055,-0.0064,-0.0071,-0.0079,-0.0088,-0.0084,-0.0081,-0.0078,-0.0101,-0.0098,-0.0096,-0.0128,-0.0128,-0.0128,0,0,0.0108,0.01,0.0111,0.0108,0.0102,0.0092,0.0093,0.0075,0.0064,0.0055,0.0026,0.0008,-0.0021,-0.0037,-0.005,-0.0037,-0.0068,-0.0046,-0.0014,-0.0035,-0.0033,-0.0031,-0.0052,-0.0053,-0.0042,-0.0042,-0.0042,0,0.0112,0.0126,0.0112,0.0124,0.0128,0.0101,0.0115,0.0103,0.0082,0.0079,0.0059,0.0019,-0.0007,-0.0013,-0.0011,-0.0027,-0.0046,-0.0027,-0.0029,-0.0028,-0.0027,-0.0049,-0.005,-0.0039,-0.004,-0.004,-0.004,0,0.014,0.015,0.0156,0.0164,0.0165,0.0172,0.016,0.0155,0.0137,0.0124,0.0109,0.0072,0.0049,0.0037,0.0016,0.0013,-0.0005,-0.0022,-0.0037,-0.002,-0.0045,-0.0048,-0.0035,-0.0036,-0.0037,-0.0038,0,0,0.0157,0.0174,0.0175,0.019,0.0189,0.0195,0.02,0.02,0.0207,0.0175,0.018,0.0142,0.0117,0.0101,0.0072,0.0053,0.0042,0.0022,0.002,0.0008,-0.0006,-0.0016,-0.002,0.0024,0.0024,0.0024,-0.0025,0,0.0183,0.0217,0.0217,0.0249,0.0266,0.0252,0.026,0.0255,0.0242,0.0238,0.0197,0.0185,0.0144,0.0133,0.0109,0.006,0.0038,0.0056,-0.0026,-0.0029,-0.0034,-0.0022,-0.0003,-0.0045,-0.0027,-0.0028,-0.0028,0,0.0214,0.0234,0.0269,0.0297,0.0303,0.0315,0.033,0.0335,0.0321,0.031,0.0288,0.0253,0.0222,0.0182,0.0108,0.0122,0.0063,0.002,0.0017,-0.0013,-0.0043,-0.0061,-0.005,-0.0032,-0.0032,-0.0032,-0.0031,0,0.0241,0.0273,0.0305,0.0314,0.0336,0.0348,0.0357,0.0354,0.0373,0.0356,0.0363,0.0312,0.0294,0.0215,0.0124,0.0115,0.004,0.0015,-0.0051,-0.0053,-0.0063,-0.0065,-0.0041,-0.0041,-0.0041,-0.0041,-0.0041,0,0.0277,0.0303,0.0319,0.0339,0.0379,0.0379,0.0418,0.0418,0.0429,0.046,0.0402,0.0414,0.0301,0.0243,0.0147,0.0047,0.0055,-0.0042,-0.0063,-0.0044,-0.0043,-0.0055,-0.0056,-0.0042,-0.0042,-0.0042,-0.0041,0,0.0307,0.0316,0.0357,0.0384,0.0395,0.0423,0.0469,0.05,0.0497,0.0537,0.0534,0.0495,0.0419,0.03,0.0179,0.0088,-0.0015,-0.0057,-0.0026,-0.0043,-0.0102,-0.01,-0.0134,-0.0134,-0.0135,-0.0135,-0.0136,0,0.033,0.035,0.0392,0.0421,0.0436,0.0478,0.0512,0.0532,0.0576,0.0592,0.0622,0.056,0.0534,0.0352,0.018,0.0011,-0.0015,-0.0087,-0.0103,-0.0092,-0.0111,-0.0107,-0.0104,-0.0098,-0.0099,-0.0099,-0.0099,0,0.0372,0.0378,0.0412,0.0468,0.0511,0.0568,0.0622,0.067,0.0698,0.0728,0.076,0.0736,0.0565,0.0408,0.0173,0.0057,-0.0059,-0.0094,-0.0088,-0.0075,-0.0063,-0.0079,-0.0077,-0.0099,-0.0099,-0.0099,-0.0099,-0.0099,0.0402,0.043,0.0467,0.0524,0.0576,0.065,0.0705,0.0768,0.0839,0.0885,0.0866,0.0829,0.0646,0.0353,0.0153,-0.0065,-0.0058,-0.0135,-0.0134,-0.0132,-0.0116,-0.0106,-0.0148,-0.0148,-0.0148,-0.0148,-0.0148,0,0.0445,0.0472,0.0523,0.0592,0.0654,0.0674,0.0774,0.0828,0.0914,0.0946,0.0963,0.0793,0.0612,0.0391,0.0074,-0.011,-0.0126,-0.0172,-0.0147,-0.0145,-0.0144,-0.0128,-0.0163,-0.0163,-0.0164,-0.0164,0,0,0.0469,0.0521,0.0543,0.0644,0.0692,0.078,0.0838,0.0914,0.096,0.0994,0.0971,0.0931,0.0672,0.0445,0.0195,0.0014,-0.0027,-0.0026,0.0006,0.0066,0.007,-0.0102,-0.0072,0,0,0,0,0]}],[{"header":{"parameterUnit":"m.s-1","parameterCategory":2,"la1":30.2991,"la2":30.254,"lo1":-89.0895,"lo2":-89.0444,"dy":0.0017,"dx":0.0017,"nx":28,"ny":28,"refTime":"2025-09-06T21:00:00:Z","depth":"4","parameterNumber":2,"parameterNumberName":"U-component_of_CURRENTS"},"data":[0,0,0,0,0,0,0,0,0,0,0,0,0,0,0,0,0,0,0,0,0,0,0,0,0,0,0,0,0,0,0,0,0,0,0,0,0,0,0,0,0,0,0,0,0,0,0,0,0,0,0,0,0,0,0,0,0,0,0.1074,0.1074,0,0.1117,0.1117,0.1117,0.1151,0.1151,0.1152,0.1152,0.1201,0.1202,0.1203,0,0,0,0,0,0,0,0,0,0,0,0,0,0.1027,0.1028,0.1074,0.1075,0.1075,0.1117,0.1117,0.1117,0.1151,0.1151,0.1152,0.1153,0.1201,0.1202,0.1203,0,0,0,0,0,0,0,0,0,0,0,0,0,0.1054,0.1028,0.1074,0.1099,0.1101,0.1117,0.1117,0.1117,0.1151,0.1151,0.1152,0.1153,0.1201,0.1202,0.1203,0.1194,0,0,0.1207,0.1207,0,0,0,0,0,0,0,0,0.1053,0.1056,0.1094,0.1097,0.11,0.1131,0.1119,0.1144,0.115,0.1129,0.1152,0.1153,0.1179,0.1182,0.1185,0.1197,0.1199,0.1207,0.1208,0.1208,0.1209,0,0,0,0,0,0,0,0.1051,0.1054,0.1088,0.1095,0.1099,0.111,0.1114,0.1124,0.1148,0.1131,0.1134,0.1143,0.1181,0.1184,0.1187,0.12,0.1207,0.1208,0.1209,0.1209,0.1288,0.1289,0,0,0,0,0,0,0.1049,0.1052,0.1087,0.109,0.1081,0.111,0.1115,0.1119,0.1148,0.1153,0.1142,0.1144,0.1182,0.1185,0.1189,0.1253,0.1208,0.1209,0.121,0.1287,0.1288,0.129,0,0,0,0,0,0,0.1048,0.1051,0.1085,0.1074,0.108,0.1111,0.1114,0.1119,0.1149,0.1156,0.1162,0.117,0.1182,0.1187,0.1226,0.1253,0.121,0.1211,0.1285,0.1287,0.1289,0.1336,0,0,0,0,0,0,0.1046,0.105,0.1064,0.1074,0.108,0.1113,0.1114,0.1119,0.1152,0.1156,0.1181,0.1185,0.1183,0.1224,0.1227,0.1254,0.1212,0.1283,0.1286,0.1289,0.1332,0.1339,0.1345,0,0,0,0,0,0.1044,0.1055,0.1064,0.107,0.1094,0.1114,0.1119,0.1141,0.1153,0.1171,0.1193,0.1186,0.1242,0.1226,0.1229,0.1257,0.1282,0.1285,0.1288,0.1329,0.1338,0.1344,0,0,0,0,0,0,0.1046,0.106,0.1071,0.1088,0.1109,0.1121,0.1142,0.1156,0.1186,0.1198,0.1202,0.1208,0.1252,0.1249,0.1231,0.1288,0.1261,0.1265,0.1292,0.1299,0.1305,0.1306,0.1213,0,0,0,0,0,0.1051,0.1064,0.1081,0.1099,0.1111,0.1131,0.1148,0.1164,0.1186,0.1201,0.1222,0.1243,0.1262,0.1278,0.1293,0.1323,0.1321,0.1343,0.1349,0.1355,0.1358,0.1375,0.1382,0.13,0.13,0.13,0,0,0.1056,0.1069,0.1076,0.1102,0.1119,0.1139,0.1143,0.1176,0.1201,0.1201,0.1251,0.1268,0.1276,0.1312,0.1331,0.1316,0.138,0.1359,0.1363,0.1364,0.1379,0.1386,0.1393,0.1302,0.1302,0.1301,0,0,0.1064,0.1086,0.1096,0.1117,0.1151,0.1164,0.1179,0.121,0.1236,0.1279,0.1287,0.1323,0.1355,0.1366,0.1373,0.1422,0.1413,0.1432,0.1463,0.1479,0.1486,0.1492,0.151,0.1517,0.1434,0.1434,0.1434,0,0.1073,0.1087,0.1106,0.1124,0.1146,0.1177,0.1198,0.1225,0.127,0.1294,0.1306,0.1367,0.1378,0.1413,0.1435,0.1436,0.1445,0.1433,0.1487,0.1492,0.1497,0.1515,0.1522,0.1437,0.1436,0.1436,0.1436,0,0.1081,0.1105,0.1117,0.1148,0.1174,0.1202,0.1237,0.1277,0.1315,0.134,0.1402,0.1424,0.146,0.1471,0.147,0.1515,0.151,0.1492,0.1465,0.1508,0.1524,0.1531,0.144,0.1439,0.1439,0.1438,0,0,0.107,0.1112,0.1122,0.1138,0.1192,0.1209,0.1262,0.1309,0.1346,0.1401,0.1448,0.1494,0.1518,0.1527,0.1537,0.1554,0.1604,0.1546,0.1546,0.156,0.1649,0.155,0.1548,0.1597,0.1598,0.1599,0.1649,0,0.1076,0.1105,0.1132,0.1171,0.1188,0.1237,0.1281,0.1332,0.1383,0.1439,0.1479,0.1529,0.1535,0.1563,0.1585,0.1602,0.1622,0.1592,0.1609,0.1609,0.1512,0.1552,0.1603,0.1653,0.1655,0.1656,0.1657,0,0.1075,0.1096,0.1131,0.1179,0.1193,0.1229,0.1303,0.1346,0.1427,0.147,0.1531,0.1565,0.1624,0.1612,0.1669,0.1654,0.166,0.1664,0.1665,0.1559,0.1522,0.1599,0.1668,0.1667,0.1666,0.1666,0.1665,0,0.1048,0.1096,0.1124,0.1143,0.1203,0.124,0.1283,0.1362,0.1409,0.1498,0.1543,0.161,0.166,0.1681,0.1712,0.1697,0.1759,0.1732,0.1648,0.1642,0.1694,0.1687,0.1759,0.1759,0.1759,0.1759,0.1758,0,0.1032,0.1057,0.1118,0.1132,0.1178,0.1229,0.1292,0.1348,0.1435,0.1486,0.1562,0.1608,0.1681,0.1726,0.1732,0.1718,0.1779,0.166,0.1647,0.1714,0.1709,0.1699,0.1691,0.176,0.176,0.176,0.1759,0,0.0994,0.1035,0.1068,0.1136,0.1165,0.1201,0.1295,0.1331,0.1426,0.1497,0.1532,0.1633,0.1688,0.174,0.1783,0.1737,0.1732,0.1706,0.1794,0.1784,0.1599,0.1593,0.1611,0.1608,0.1606,0.1604,0.1602,0,0.0975,0.099,0.1065,0.1088,0.1124,0.1187,0.1228,0.1324,0.1364,0.1494,0.1516,0.1613,0.1665,0.1657,0.1711,0.1719,0.1694,0.1681,0.162,0.1598,0.1584,0.1582,0.158,0.1598,0.1597,0.1596,0.1595,0,0.0934,0.0973,0.0998,0.1048,0.1093,0.1133,0.1199,0.1222,0.1328,0.1424,0.147,0.1502,0.156,0.1594,0.1619,0.1616,0.1683,0.1653,0.1658,0.16,0.1581,0.157,0.1571,0.1586,0.1588,0.1589,0.1589,0,0.0914,0.0919,0.0959,0.0998,0.1049,0.1065,0.1103,0.1148,0.1203,0.1343,0.1355,0.1452,0.1547,0.1541,0.156,0.1557,0.1523,0.1462,0.1476,0.1486,0.142,0.1377,0.1312,0,0,0,0,0,0.0888,0.0882,0.0903,0.0934,0.0981,0.1014,0.1079,0.1117,0.1221,0.1221,0.1287,0.1333,0.1369,0.1419,0.139,0.1495,0.1525,0.1452,0.146,0.1536,0.1547,0.1479,0,0,0,0,0,0,0.0866,0.0881,0.0878,0.0879,0.0894,0.0933,0.0971,0.1033,0.1038,0.1148,0.1176,0.126,0.1316,0.1384,0.1372,0.1385,0.1362,0.1516,0.1513,0.153,0.154,0.1548,0.1483,0,0,0,0,0]},{"header":{"parameterUnit":"m.s-1","parameterCategory":2,"la1":30.2991,"la2":30.254,"lo1":-89.0895,"lo2":-89.0444,"dy":0.0017,"dx":0.0017,"nx":28,"ny":28,"refTime":"2025-09-06T21:00:00:Z","depth":"4","parameterNumber":3,"parameterNumberName":"V-component_of_CURRENTS"},"data":[0,0,0,0,0,0,0,0,0,0,0,0,0,0,0,0,0,0,0,0,0,0,0,0,0,0,0,0,0,0,0,0,0,0,0,0,0,0,0,0,0,0,0,0,0,0,0,0,0,0,0,0,0,0,0,0,0,0,0.0178,0.0177,0,0.0161,0.0161,0.0161,0.0159,0.0159,0.0159,0.0159,0.0125,0.0124,0.0123,0,0,0,0,0,0,0,0,0,0,0,0,0,0.0181,0.0182,0.0178,0.0177,0.0177,0.0161,0.0161,0.0161,0.0159,0.0159,0.0159,0.0159,0.0126,0.0124,0.0123,0,0,0,0,0,0,0,0,0,0,0,0,0,0.0174,0.0182,0.0178,0.0174,0.0174,0.0161,0.0161,0.0161,0.0159,0.0159,0.0159,0.0159,0.0126,0.0125,0.0123,0.0109,0,0,0.0118,0.0118,0,0,0,0,0,0,0,0,0.0175,0.0174,0.0175,0.0174,0.0174,0.0162,0.015,0.0142,0.0159,0.0165,0.0159,0.0159,0.0136,0.0133,0.013,0.0107,0.0106,0.0118,0.0117,0.0116,0.0116,0,0,0,0,0,0,0,0.0175,0.0175,0.0171,0.0175,0.0174,0.0164,0.0164,0.0148,0.0149,0.0164,0.0164,0.0162,0.0135,0.0132,0.0129,0.0106,0.0118,0.0117,0.0116,0.0115,0.0075,0.0075,0,0,0,0,0,0,0.0178,0.0175,0.0172,0.0171,0.0174,0.0164,0.0164,0.0166,0.0149,0.0147,0.0161,0.0162,0.0134,0.0131,0.0128,0.0121,0.0116,0.0115,0.0114,0.0075,0.0075,0.0075,0,0,0,0,0,0,0.0178,0.0178,0.0172,0.0172,0.0171,0.0164,0.0166,0.0165,0.0165,0.0148,0.0145,0.0162,0.0134,0.013,0.0117,0.0119,0.0114,0.0113,0.0075,0.0075,0.0075,0.01,0,0,0,0,0,0,0.0178,0.0178,0.0181,0.0172,0.0171,0.0169,0.0166,0.0165,0.0163,0.0163,0.0147,0.0145,0.0134,0.0119,0.0115,0.0117,0.0112,0.0075,0.0075,0.0075,0.0099,0.0101,0.0102,0,0,0,0,0,0.0179,0.0183,0.0181,0.0181,0.0175,0.0169,0.0167,0.0163,0.0163,0.0163,0.0152,0.0145,0.0115,0.0118,0.0113,0.0115,0.0075,0.0075,0.0075,0.0099,0.01,0.0102,0,0,0,0,0,0,0.0184,0.0183,0.0181,0.0184,0.0178,0.0169,0.0169,0.0165,0.0157,0.0158,0.0142,0.0138,0.0127,0.0115,0.0119,0.0101,0.0094,0.0093,0.0114,0.0115,0.0117,0.0127,0.011,0,0,0,0,0,0.0187,0.0193,0.0185,0.0188,0.0186,0.0178,0.0175,0.0172,0.0163,0.016,0.0148,0.0135,0.0121,0.0115,0.0101,0.009,0.0075,0.0087,0.0089,0.009,0.0095,0.0071,0.007,0.0074,0.0074,0.0074,0,0,0.0189,0.019,0.0192,0.019,0.0186,0.0188,0.0177,0.0176,0.0177,0.0157,0.0155,0.0138,0.0119,0.0109,0.0103,0.01,0.008,0.0089,0.0091,0.0095,0.007,0.007,0.007,0.0073,0.0073,0.0073,0,0,0.0199,0.0198,0.0207,0.0205,0.0201,0.0196,0.0197,0.0188,0.0185,0.0176,0.0163,0.0148,0.0128,0.0116,0.0107,0.0105,0.0087,0.01,0.0116,0.0092,0.0092,0.0091,0.0071,0.0069,0.0101,0.0101,0.0102,0,0.0202,0.0214,0.0207,0.0215,0.0217,0.0202,0.0211,0.0203,0.0191,0.0188,0.018,0.015,0.0132,0.0121,0.0121,0.0109,0.0093,0.0113,0.0095,0.0094,0.0093,0.0072,0.0069,0.0103,0.0103,0.0102,0.0102,0,0.0218,0.0228,0.0233,0.0241,0.0241,0.0246,0.0236,0.0232,0.0224,0.0214,0.02,0.0172,0.0157,0.0145,0.0132,0.0119,0.0109,0.0099,0.0093,0.0094,0.0072,0.0068,0.0104,0.0104,0.0104,0.0103,0,0,0.0227,0.0243,0.0246,0.0259,0.0258,0.0262,0.0262,0.0259,0.0265,0.024,0.0241,0.0208,0.0192,0.0181,0.0159,0.0136,0.0112,0.0118,0.0116,0.0102,0.0062,0.0053,0.0048,0.0099,0.0098,0.0098,0.0049,0,0.0243,0.027,0.0271,0.0295,0.0308,0.0299,0.0302,0.0297,0.0286,0.0281,0.0245,0.0237,0.0206,0.0201,0.0172,0.013,0.0104,0.0127,0.006,0.0058,0.0053,0.0044,0.0097,0.0047,0.0046,0.0045,0.0045,0,0.026,0.0278,0.0306,0.033,0.0335,0.0346,0.0356,0.0357,0.034,0.0333,0.0312,0.0286,0.0251,0.0224,0.015,0.0166,0.0118,0.008,0.0077,0.0059,0.0042,0.0044,0.0038,0.0038,0.0039,0.0039,0.004,0,0.0276,0.0305,0.0332,0.034,0.0358,0.0371,0.0379,0.0373,0.0384,0.0368,0.0373,0.0323,0.0304,0.0236,0.0155,0.0154,0.007,0.0058,0.0002,0.0001,0.0014,0.0015,0.0003,0.0003,0.0003,0.0004,0.0004,0,0.0295,0.0319,0.0345,0.0361,0.0397,0.0397,0.043,0.0428,0.0432,0.0447,0.0404,0.04,0.0306,0.0247,0.0168,0.0075,0.0078,0.0004,-0.0013,0.0025,0.0028,0.0011,0.0013,0.0002,0.0002,0.0003,0.0003,0,0.031,0.0325,0.036,0.0391,0.0407,0.0431,0.0474,0.0494,0.0492,0.051,0.0509,0.0459,0.038,0.028,0.0168,0.0098,0.0006,-0.0028,0.0023,0.0009,-0.005,-0.0046,-0.0092,-0.0093,-0.0093,-0.0094,-0.0094,0,0.0321,0.034,0.0388,0.0415,0.0434,0.0475,0.0505,0.0523,0.0547,0.0544,0.0552,0.0489,0.0441,0.0279,0.0168,0.0016,-0.0008,-0.0057,-0.0059,-0.0048,-0.006,-0.0055,-0.0051,-0.0095,-0.0095,-0.0096,-0.0096,0,0.0341,0.0358,0.0387,0.0443,0.0485,0.0532,0.0575,0.0599,0.0612,0.0616,0.0588,0.0503,0.0413,0.0282,0.0163,0.0053,-0.0027,-0.0065,-0.0064,-0.0066,-0.0052,-0.0063,-0.0058,-0.0098,-0.0098,-0.0097,-0.0097,0,0.0358,0.038,0.042,0.0468,0.0522,0.0568,0.0592,0.0618,0.0639,0.0632,0.0621,0.0521,0.0464,0.03,0.0191,0.0081,0.005,0.001,0.0006,0.0007,0.0045,0.0078,0.0058,0,0,0,0,0,0.0373,0.0397,0.0443,0.0493,0.0547,0.0577,0.0629,0.0647,0.0664,0.0649,0.0636,0.055,0.0387,0.0319,0.0208,0.0172,0.0028,0.0037,-0.0022,-0.011,-0.0108,-0.0081,0,0,0,0,0,0,0.0381,0.0423,0.0441,0.0505,0.0542,0.0602,0.0635,0.0647,0.0639,0.0637,0.0556,0.0515,0.036,0.045,0.0203,0.017,0.0115,-0.0037,-0.0039,-0.0112,-0.0109,-0.0107,-0.0079,0,0,0,0,0]}]]